カタログに戻る

METEOR 2-6 DEB

運用中PO
NORAD 29201·DEBRIS·🇷🇺 Russia

打ち上げ Sep 9, 1980 から Plesetsk Cosmodrome

Loading…

次のパス (今後24時間)

TLE

経年Source: Space-Track

元期: Sep 6, 2026, 10:23 UTC

1 29201U 80073G   26249.43314643  .00027506  00000-0  22670-2 0  9992
2 29201  81.1888 143.4799 0007511  49.4963 310.6909 14.98901393673793

AllMySatでMETEOR 2-6 DEBをリアルタイム追跡

Download on the App Store